Location: Rounton
(54.4000°N, 1.3500°W)
Time: 14:41:09
(UTC+00:00)

Vanguard 2 - Pass Details

Date: 05 December 2021
Orbit: 553 x 2936 km, 32.9° (Epoch: 23 January)

Event Time Altitude Azimuth Distance (km) Brightness Sun altitude
Rises 16:25:22 0° 233° (SW) 3,509 13.5 -5.9°
Reaches altitude 10° 16:30:44 10° 194° (SSW) 3,112 11.3 -6.6°
Maximum altitude 16:31:57 10° 185° (S) 3,207 11.2 -6.7°
Drops below altitude 10° 16:33:14 10° 176° (S) 3,373 11.2 -6.9°
Sets 16:40:55 0° 142° (SE) 5,142 11.6 -7.9°
